Regional Weather Roundup
Issued by NWS Mt. Holly, NJ

Home | Current Version | Previous Version | Text Only | Print | Product List | Glossary On
Versions: 1 2 3 4 5 6 7 8 9 10 11 12 13 14 15 16 17 18 19 20 21 22 23 24 25 26 27 28 29 30 31 32 33 34 35 36 37 38 39 40 41 42 43 44 45 46 47 48 49 50
612
ASUS41 KPHI 222212
RWRPHI

REGIONAL WEATHER ROUNDUP
NATIONAL WEATHER SERVICE MOUNT HOLLY NJ
600 PM EDT MON MAY 22 2017

NOTE:  "FAIR" INDICATES FEW OR NO CLOUDS BELOW 12,000 FEET WITH NO
SIGNIFICANT WEATHER AND/OR OBSTRUCTIONS TO VISIBILITY.

 * = STATION DOES NOT REPORT PRECIPITATION (E.G. RAIN, SNOW, ETC.)
        OR FOG.

NJZ015>026-222300-
SOUTHERN NEW JERSEY

CITY           SKY/WX    TMP DP  RH WIND       PRES   REMARKS
POMONA         CLOUDY    64  62  93 SE5       29.96S FOG
WILDWOOD*      CLOUDY    66  65  96 SE3       29.96F
MILLVILLE      CLOUDY    66  66 100 CALM      29.95F
WRIGHTSTOWN    CLOUDY    64  63  97 SW3       29.95R
MOUNT HOLLY    CLOUDY    64  62  93 CALM      29.97R
TRENTON        CLOUDY    63  61  93 CALM      29.96S

$$
NJZ001>014-222300-
NORTHERN NEW JERSEY

CITY           SKY/WX    TMP DP  RH WIND       PRES   REMARKS
SUSSEX         CLOUDY    60  58  92 CALM      29.98F
ANDOVER*         N/A     59  57  93 CALM      29.98S
MORRISTOWN     CLOUDY    61  59  94 CALM      29.98F FOG
NEWARK         CLOUDY    59  59 100 E3        29.97F FOG
TETERBORO      LGT RAIN  61  60  97 CALM      29.96F FOG
CALDWELL       CLOUDY    62  59  90 CALM      29.97F
SOMERVILLE     CLOUDY    61  59  93 CALM      29.95F
ALLAIRE*       LGT RAIN  61  60  97 SE5       29.97F
TOMS RIVER*    CLOUDY    63  62  97 S5        29.97F

$$
PAZ043-044-047-054-055-060>062-066>071-222300-
EASTERN PENNSYLVANIA

CITY           SKY/WX    TMP DP  RH WIND       PRES   REMARKS
PHILADELPHIA   CLOUDY    65  62  90 S3        29.97S
NORTH PHILA    CLOUDY    65  62  90 CALM      29.98S
BLUE BELL*     CLOUDY    61  61 100 CALM      29.98F
DOYLESTOWN     CLOUDY    61  61 100 CALM      29.97S
QUAKERTOWN*    CLOUDY    61  61 100 CALM      29.98S
PERKASIE*      CLOUDY    61  61 100 CALM      29.98S
POTTSTOWN      CLOUDY    62  60  93 CALM      29.98S
LANCASTER      CLOUDY    64  61  90 CALM      29.97S
COATESVILLE    CLOUDY    63  63 100 CALM      29.98F FOG
READING        CLOUDY    63  60  90 CALM      29.96F
ALLENTOWN      CLOUDY    61  56  83 N3        29.97F
MOUNT POCONO   CLOUDY    54  54 100 SE5       29.98S FOG
HAZLETON       CLOUDY    61  54  77 CALM      30.01R
LEHIGHTON      CLOUDY    59  55  88 CALM      29.99S
WILKES BARRE   CLOUDY    63  56  78 S5        29.95F

$$
DEZALL-MDZ008-012-015-019-020-222300-
DELAWARE AND EASTERN MARYLAND

CITY           SKY/WX    TMP DP  RH WIND       PRES   REMARKS
WILMINGTON     CLOUDY    65  63  93 E5        29.96F
DOVER          CLOUDY    65  65 100 CALM      29.95F
GEORGETOWN     LGT RAIN  70  67  90 S5        29.96F
EASTON         CLOUDY    70  64  83 CALM      30.00S
ABERDEEN       CLOUDY    64  62  94 S5        29.97S
PATUXENT       CLOUDY    67  67 100 CALM      29.95F
OCEAN CITY     LGT RAIN  68  66  93 W3        29.96F
WALLOPS ISLAND LGT RAIN  66  66 100 SE7       29.95F
CAMBRIDGE      PTSUNNY   70  66  88 CALM      29.96S
SALISBURY      LGT RAIN  70  69  97 W3        29.96S

$$
PAZ001-021-NYZ056-072-MDZ011-DCZ001-222300-
OTHER NEARBY LOCATIONS

CITY           SKY/WX    TMP DP  RH WIND       PRES   REMARKS
HARRISBURG     CLOUDY    64  61  90 S3        29.95F
STATE COLLEGE  MOSUNNY   70  50  49 W12G21    29.96R
WILLIAMSPORT   PTSUNNY   66  58  75 E6        29.93R
BINGHAMTON     CLOUDY    62  56  80 S7        29.93S
NEW YORK CITY  CLOUDY    60  59  96 VRB3      30.00S FOG
BALTIMORE      CLOUDY    66  64  93 E6        29.96R
WASHINGTON DC  CLOUDY    70  64  81 S7        29.96R

$$




USA.gov is the U.S. government's official web portal to all federal, state and local government web resources and services.